Home   Weather   Clovis   Past weeks
Flag for USA

Past Weather in Clovis, New Mexico, USA — Yesterday and Last 2 Weeks

Now
82 °F

Scattered clouds.


Feels Like: 82 °F
Forecast: 87 / 58 °F
Wind: 12 mph from Southwest

Location: Cannon Air Force Base / Clovis

Current Time: Jun 18, 2019 at 1:23:53 pm

Latest Report: Jun 18, 2019 at 12:58 pm


Visibility: 10 mi

Pressure: 29.88 "Hg (25.77 "Hg at 1300m altitude)

Humidity: 48%

Dew Point: 60 °F

Location of ClovisLocation

Past Weather in Clovis — Graph

°F

Clovis Temperature Yesterday

Maximum temperature yesterday: 84 °F (at 12:58 pm)
Minimum temperature yesterday: 59 °F (at 9:10 pm)
Average temperature yesterday: 69 °F

High & Low Weather Summary for the Past Weeks

 TemperatureHumidityPressure
High96 °F (Jun 14, 2:58 pm)93% (Jun 5, 3:58 am)30.47 "Hg (Jun 5, 3:58 am)
Low52 °F (Jun 11, 3:58 am)10% (Jun 14, 2:58 pm)29.61 "Hg (Jun 14, 6:58 pm)
Average71 °F53%29.95 "Hg
* Reported Jun 3 11:58 am — Jun 18 11:58 am, Clovis. Weather by CustomWeather, © 2019

Note: Actual official high and low records may vary slightly from our data, if they occured in-between our weather recording intervals... More about our weather records

Advertising

Clovis Weather History for the Previous 24 Hours

Scroll right to see more
 ConditionsComfort  
Time TempWeatherWind HumidityBarometerVisibility
11:58 am
Tue, Jun 18
79 °FSunny.14 mph51%29.90 "Hg10 mi
10:58 am76 °FSunny.16 mph55%29.93 "Hg10 mi
9:58 am71 °FSunny.10 mph63%29.94 "Hg10 mi
8:58 am68 °FSunny.13 mph65%29.97 "Hg10 mi
7:58 am67 °FSunny.8 mph68%30.09 "Hg10 mi
6:58 am62 °FSunny.9 mph81%29.96 "Hg10 mi
5:58 am59 °FSunny.8 mph84%29.96 "Hg10 mi
4:58 am58 °FClear.12 mph91%29.93 "Hg10 mi
3:58 am59 °FClear.5 mph89%29.91 "Hg10 mi
2:58 am60 °FPassing clouds.3 mph86%29.88 "Hg10 mi
1:58 am60 °FPassing clouds.13 mph87%29.91 "Hg10 mi
12:58 am60 °FThundershowers. Partly cloudy.13 mph82%29.92 "Hg10 mi
12:25 am59 °FThundershowers. Partly cloudy.9 mph88%29.93 "Hg10 mi
12:01 am59 °FThunderstorms. Passing clouds.14 mph88%29.93 "Hg10 mi
11:58 pm
Mon, Jun 17
59 °FThundershowers. Passing clouds.14 mph89%29.92 "Hg10 mi
10:58 pm59 °FThundershowers. Overcast.20 mph92%29.95 "Hg7 mi
9:58 pm59 °FPassing clouds.13 mph87%29.96 "Hg10 mi
9:34 pm59 °FThundershowers. Passing clouds.18 mph88%29.94 "Hg10 mi
9:10 pm59 °FStrong thunderstorms. Fog.18 mph88%29.95 "Hg5 mi
8:58 pm61 °FStrong thunderstorms. Mostly cloudy.30 mph85%29.91 "Hg5 mi
7:58 pm63 °FThunderstorms. Mostly cloudy.18 mph71%29.87 "Hg10 mi
7:24 pm64 °FThunderstorms. Partly sunny.15 mph78%29.88 "Hg10 mi
6:58 pm66 °FThunderstorms. Partly sunny.16 mph59%29.85 "Hg5 mi
5:58 pm66 °FThunderstorms. Partly sunny.20 mph67%29.83 "Hg10 mi
5:38 pm72 °FThunderstorms. Scattered clouds.20 mph57%29.80 "Hg10 mi
5:17 pm77 °FPassing clouds.21 mph47%29.79 "Hg10 mi
5:01 pm75 °FThunderstorms. Scattered clouds.18 mph50%29.82 "Hg10 mi
4:34 pm75 °FThunderstorms. Scattered clouds.24 mph54%29.83 "Hg10 mi
3:58 pm75 °FScattered clouds.21 mph59%29.84 "Hg10 mi
3:23 pm77 °FThundershowers. Partly sunny.22 mph57%29.84 "Hg10 mi
2:58 pm78 °FBroken clouds.9 mph59%29.85 "Hg10 mi
1:58 pm78 °FBroken clouds.9 mph56%29.88 "Hg10 mi
1:34 pm82 °FSprinkles. Partly sunny.9 mph42%29.88 "Hg8 mi
Weather by CustomWeather, © 2019

See weather overview